Wind_Speed
8 9 9 9 9 9 9 10 11 10 10 10 11 11 10 10 11 11 12 12 11 11 11 11 10 10 10 10 9 9 9 9 9 9 8 7 7 6 7 6 5 5 5 5
9 10 10 10 10 10 10 11 12 11 11 11 11 12 12 11 11 11 11 12 12 12 11 11 11 10 10 10 10 9 10 9 9 9 8 7 7 7 7 6 6 5 5 6
11 11 11 11 12 12 11 11 11 11 12 12 12 12 12 12 12 12 12 12 12 12 11 11 11 10 10 10 10 9 10 10 9 9 8 8 8 7 7 7 7 6 6 6
12 12 13 13 13 13 13 11 10 10 12 11 12 12 12 12 12 12 12 12 12 11 11 11 11 11 11 11 11 10 10 10 10 9 9 8 8 8 8 8 7 7 7 6
12 13 14 14 13 13 12 11 10 11 12 12 12 13 13 13 12 12 13 13 13 12 11 11 11 11 11 11 11 11 11 11 10 10 10 9 10 10 9 8 8 8 8 7
12 13 14 14 13 13 12 12 12 11 12 12 11 13 14 13 13 12 13 13 13 13 12 12 12 11 12 12 12 11 11 11 11 11 11 11 11 11 10 9 9 9 8 8
12 13 13 14 14 14 13 12 12 11 11 13 12 14 15 13 13 13 13 13 14 13 13 13 12 12 12 12 12 12 12 12 12 12 12 12 12 11 11 10 10 9 9 9
13 13 13 15 15 14 14 13 12 11 11 14 14 15 15 14 14 14 13 13 13 13 13 13 13 13 13 13 13 13 13 13 13 13 13 12 12 12 12 11 11 11 10 10
14 15 14 15 15 15 14 15 14 14 13 13 14 15 15 14 15 14 14 13 13 13 13 13 13 13 13 13 13 13 14 14 14 14 14 13 13 13 12 12 12 12 12 11
16 17 15 15 16 16 15 14 14 14 14 13 14 15 14 14 15 14 14 14 14 14 13 13 14 14 14 13 14 13 14 15 15 15 15 14 13 13 13 13 13 13 12 12
17 17 16 16 16 16 16 16 15 15 16 15 14 15 15 15 16 15 15 15 14 14 14 14 14 14 14 14 14 14 15 15 15 15 16 16 15 14 14 14 14 13 13 13
18 18 18 17 17 17 17 17 17 17 16 16 17 17 16 16 16 16 16 15 15 15 15 15 15 14 14 15 15 14 15 15 15 15 16 16 16 16 15 15 15 14 14 14
19 19 19 19 18 18 18 18 18 18 18 17 18 18 18 17 17 17 17 17 16 17 16 15 15 15 14 15 15 15 15 15 16 16 16 17 17 17 16 16 15 15 15 15
20 20 20 20 19 19 19 20 19 20 20 19 19 18 18 18 18 18 17 17 17 17 16 16 16 15 15 15 15 15 15 16 16 16 16 17 17 17 17 17 16 16 16 16
21 22 21 21 21 22 22 21 21 21 21 20 19 19 19 20 19 18 18 17 17 17 17 16 16 16 16 16 16 16 16 16 16 16 17 16 16 17 17 17 17 17 17 16
22 23 22 23 22 23 23 22 22 22 22 21 20 20 20 21 20 19 18 18 18 18 18 17 17 17 16 16 16 17 17 17 17 16 16 17 17 17 17 17 17 18 17 17
22 22 23 23 23 23 24 23 24 24 23 22 21 20 21 21 20 20 20 20 19 19 19 18 17 17 17 16 17 17 17 17 17 17 17 17 18 18 18 18 19 19 18 18
23 23 24 23 24 25 24 23 23 24 24 23 22 21 21 21 21 20 20 20 20 20 19 19 18 17 17 17 17 17 17 17 18 18 17 18 18 19 19 19 20 20 19 19
23 24 24 25 26 26 25 24 23 23 24 23 23 22 22 22 21 21 20 20 20 20 20 19 18 18 17 17 17 16 17 17 17 18 18 18 18 19 19 19 19 19 19 19
24 24 24 25 25 26 25 24 24 24 24 23 23 23 23 22 23 21 21 21 21 20 20 20 19 18 18 18 17 17 17 17 18 18 19 19 19 19 19 18 18 19 19 19
25 26 26 26 26 26 24 22 23 25 23 23 24 24 24 23 23 22 23 23 22 21 21 20 20 19 19 19 19 19 19 18 18 18 17 18 18 18 18 18 18 19 19 19
26 26 26 26 27 27 25 23 23 24 24 25 25 24 24 24 24 24 24 23 22 22 21 21 20 20 20 20 20 20 20 19 19 19 19 19 19 19 19 19 18 18 18 18
27 27 26 26 27 27 26 25 25 26 26 25 25 24 24 25 24 24 24 24 24 23 23 22 21 21 21 21 21 21 20 20 20 20 20 20 20 20 19 19 19 20 20 19
27 27 27 27 28 28 26 26 26 27 27 26 25 25 24 24 24 24 24 24 24 24 23 23 23 22 21 21 21 21 21 21 20 20 21 21 21 21 21 21 20 20 20 20
28 29 29 29 28 28 27 26 27 28 28 27 27 26 25 25 25 25 25 24 24 24 24 23 23 23 22 22 22 21 21 21 20 20 21 21 22 22 22 22 21 21 21 22
28 29 30 30 30 30 29 28 28 28 28 27 27 27 26 26 25 25 25 24 24 24 24 24 24 24 23 23 22 22 22 21 21 21 20 21 21 21 22 22 22 23 23 23
Wind_Direction
244 243 244 248 251 252 253 251 252 255 259 262 261 259 257 259 261 262 261 261 263 267 266 262 264 266 263 263 266 266 264 266 269 268 269 268 268 277 281 279 281 284 286 288
249 248 250 254 252 253 252 252 254 253 258 263 262 263 265 262 261 261 262 261 264 266 265 261 262 263 265 264 266 266 263 264 267 267 263 261 264 269 273 272 275 277 284 291
253 253 252 254 253 252 250 255 255 257 260 260 263 263 265 264 262 261 262 261 264 267 265 263 260 261 262 262 262 259 262 266 265 261 259 262 264 263 262 267 273 274 278 287
257 254 253 254 251 250 250 254 252 254 257 257 261 263 263 267 266 264 262 263 265 265 264 262 262 261 259 259 259 259 262 264 261 258 259 260 261 259 262 267 271 271 274 282
258 256 252 251 251 248 250 253 253 254 256 259 261 261 262 267 269 267 265 265 265 264 263 263 263 263 262 259 257 258 260 261 259 260 260 259 259 260 262 266 266 270 272 275
260 257 253 250 246 246 246 246 248 251 250 255 258 261 265 268 270 269 266 266 265 264 263 263 262 263 261 259 258 257 259 260 259 261 262 260 260 260 262 265 265 268 271 274
263 257 251 247 244 242 242 244 245 247 250 256 259 262 267 271 275 273 270 266 265 266 266 264 264 262 260 261 260 259 261 262 260 260 260 260 260 260 262 265 266 267 269 273
266 259 250 246 245 243 243 242 241 244 251 262 263 265 269 272 273 273 271 269 265 266 266 266 264 262 261 262 260 260 260 260 259 258 259 258 259 261 263 265 265 266 268 271
261 261 256 251 248 245 242 241 239 240 246 256 261 267 270 271 269 270 271 270 268 268 266 263 263 262 262 261 261 261 261 261 258 256 256 257 258 260 262 264 265 266 267 269
256 258 253 248 249 247 247 245 241 237 241 246 254 259 266 274 270 266 267 269 269 268 266 263 261 260 262 265 263 263 261 259 257 254 255 254 256 259 260 262 265 267 267 268
252 255 254 247 247 249 246 244 243 242 243 240 246 255 260 268 270 270 267 265 267 266 265 263 262 262 262 263 265 264 263 259 256 253 254 255 255 256 259 261 263 266 267 267
249 250 253 252 248 248 248 246 241 240 244 241 247 255 261 264 268 270 270 267 266 266 265 264 264 263 263 263 263 264 263 260 257 256 256 256 257 257 259 261 263 265 267 268
250 248 250 252 249 248 247 244 242 243 246 244 248 257 260 262 265 267 269 269 270 268 266 265 266 266 264 263 262 263 261 260 260 260 260 258 258 258 257 259 262 265 267 269
249 248 248 250 253 252 248 248 246 243 244 247 250 255 257 259 264 267 267 268 271 270 268 266 267 266 264 265 264 263 262 261 260 260 260 259 259 258 256 258 260 263 265 268
249 250 250 249 250 251 250 251 250 247 247 250 253 255 256 258 262 264 265 267 268 268 267 267 268 270 269 267 264 263 263 261 260 260 259 259 261 257 254 258 261 263 264 265
248 250 252 251 251 251 249 249 251 249 249 252 254 253 256 260 262 263 264 265 265 267 268 268 268 270 271 269 265 263 263 260 258 259 259 258 258 255 255 258 261 261 264 265
251 251 251 250 250 252 251 252 253 253 252 254 256 256 257 261 262 264 263 263 264 266 269 269 269 269 269 268 266 263 262 258 255 255 256 257 254 253 254 257 261 262 265 266
254 252 251 250 249 252 255 255 253 252 251 252 254 257 260 262 261 261 261 262 265 267 268 267 267 268 268 268 266 265 263 260 258 257 255 256 255 254 256 257 259 261 264 266
252 250 249 249 249 251 252 254 252 252 252 252 254 257 259 261 259 259 262 263 266 268 268 267 268 267 267 268 267 267 266 263 262 260 258 257 255 256 257 258 259 261 264 265
250 250 248 248 251 252 251 252 253 256 254 252 255 257 258 258 257 257 260 262 264 266 268 268 267 266 267 267 265 265 267 266 265 262 258 256 256 257 259 259 261 261 264 265
249 248 247 247 251 253 252 252 250 252 253 256 257 256 257 259 259 258 259 261 263 265 268 268 267 267 267 267 267 265 266 267 263 260 257 256 256 257 258 258 263 263 264 266
253 251 249 248 250 251 252 252 250 252 254 256 256 256 257 260 260 260 262 263 264 264 265 265 264 265 266 267 266 266 266 264 261 260 260 259 257 259 259 258 262 262 263 266
252 252 252 249 251 252 252 252 250 250 252 254 253 253 256 257 259 260 261 264 265 264 263 263 262 263 264 265 265 265 265 264 262 258 258 259 258 260 260 259 261 262 262 264
251 252 252 250 250 252 252 252 251 251 252 253 253 253 254 256 257 259 260 262 264 263 261 261 260 260 262 262 263 264 265 265 264 261 258 258 257 259 258 258 262 262 262 264
251 251 251 250 250 249 250 252 250 251 252 252 253 253 255 256 258 259 260 261 263 264 262 260 259 258 258 260 262 263 263 264 264 264 261 260 259 258 258 259 262 263 263 265
252 252 251 251 249 249 249 250 249 249 251 252 253 253 255 257 258 258 259 260 262 264 263 260 258 257 258 259 261 263 263 264 263 263 263 261 259 258 259 260 262 264 264 264
Height
5845 5846 5847 5847 5848 5849 5850 5851 5852 5853 5853 5854 5855 5855 5857 5858 5858 5859 5859 5860 5860 5861 5862 5863 5863 5864 5864 5865 5866 5866 5867 5867 5868 5869 5869 5870 5870 5870 5871 5871 5871 5871 5871 5871
5843 5844 5845 5846 5846 5847 5848 5849 5850 5851 5851 5852 5853 5854 5855 5856 5856 5857 5857 5858 5858 5859 5860 5861 5861 5862 5862 5863 5864 5864 5865 5866 5866 5867 5867 5868 5869 5869 5869 5870 5870 5870 5870 5870
5841 5843 5843 5844 5844 5845 5846 5847 5848 5849 5850 5850 5851 5852 5853 5853 5854 5855 5855 5856 5857 5857 5858 5859 5859 5860 5860 5861 5862 5863 5863 5864 5864 5865 5866 5866 5867 5868 5868 5868 5869 5869 5869 5868
5838 5839 5840 5841 5842 5843 5844 5845 5846 5847 5848 5848 5849 5850 5850 5851 5852 5853 5853 5854 5854 5855 5855 5856 5857 5858 5859 5859 5860 5860 5861 5862 5862 5863 5864 5865 5865 5866 5867 5867 5867 5867 5867 5867
5835 5836 5837 5838 5840 5841 5842 5843 5844 5845 5845 5846 5847 5848 5849 5849 5849 5850 5851 5851 5852 5853 5853 5854 5855 5856 5856 5857 5858 5858 5859 5860 5860 5861 5862 5863 5864 5864 5865 5865 5865 5866 5866 5866
5833 5833 5834 5835 5837 5838 5839 5841 5841 5842 5843 5844 5845 5846 5846 5847 5847 5848 5848 5849 5849 5850 5851 5851 5852 5853 5854 5855 5855 5856 5856 5857 5858 5859 5860 5861 5861 5862 5863 5863 5864 5864 5864 5864
5829 5830 5831 5832 5834 5835 5837 5839 5839 5840 5840 5842 5843 5843 5844 5845 5845 5845 5846 5846 5847 5847 5848 5849 5850 5850 5851 5852 5852 5853 5854 5855 5855 5856 5857 5858 5859 5860 5860 5861 5861 5862 5862 5862
5826 5828 5829 5829 5831 5832 5834 5836 5837 5838 5839 5840 5840 5840 5842 5842 5842 5843 5843 5844 5844 5845 5846 5846 5847 5848 5848 5849 5849 5850 5851 5852 5852 5853 5854 5855 5856 5857 5858 5858 5859 5860 5860 5860
5823 5824 5826 5826 5827 5829 5830 5832 5834 5835 5836 5837 5838 5838 5839 5839 5840 5840 5840 5841 5842 5842 5843 5843 5844 5845 5845 5846 5847 5847 5848 5849 5849 5850 5851 5852 5853 5854 5855 5856 5856 5857 5857 5858
5819 5820 5822 5823 5824 5825 5827 5829 5830 5831 5833 5834 5835 5835 5836 5836 5836 5837 5837 5838 5839 5839 5840 5840 5841 5842 5842 5843 5843 5844 5845 5845 5846 5846 5848 5849 5850 5851 5852 5853 5853 5854 5854 5855
5814 5815 5817 5819 5820 5822 5824 5825 5826 5828 5829 5831 5832 5834 5833 5833 5833 5834 5834 5835 5836 5836 5837 5837 5838 5839 5839 5840 5840 5840 5841 5841 5842 5843 5844 5845 5846 5848 5849 5849 5850 5851 5851 5852
5810 5811 5812 5814 5816 5818 5819 5821 5823 5824 5825 5827 5828 5831 5829 5830 5830 5831 5831 5832 5832 5833 5834 5834 5835 5835 5836 5836 5836 5837 5837 5838 5838 5839 5840 5841 5842 5844 5845 5846 5846 5847 5848 5848
5806 5807 5808 5809 5813 5814 5815 5816 5818 5820 5821 5822 5824 5827 5826 5826 5827 5827 5828 5828 5829 5830 5830 5831 5831 5832 5832 5832 5833 5833 5833 5834 5835 5836 5836 5837 5839 5840 5841 5842 5843 5843 5844 5845
5801 5802 5804 5806 5807 5808 5809 5812 5813 5815 5816 5818 5820 5821 5822 5822 5823 5823 5824 5824 5825 5825 5826 5827 5827 5828 5828 5829 5829 5829 5830 5830 5831 5832 5832 5833 5834 5835 5837 5838 5839 5840 5840 5841
5795 5797 5798 5800 5802 5803 5804 5806 5808 5810 5812 5814 5815 5816 5818 5818 5819 5820 5820 5821 5821 5821 5822 5823 5823 5824 5824 5824 5825 5825 5826 5826 5827 5827 5828 5829 5830 5831 5832 5834 5835 5836 5836 5837
5790 5792 5793 5794 5796 5797 5799 5801 5802 5805 5807 5809 5810 5812 5813 5814 5815 5815 5816 5816 5817 5817 5818 5819 5819 5820 5820 5820 5820 5821 5821 5822 5822 5823 5824 5825 5825 5827 5828 5829 5830 5831 5832 5833
5784 5786 5787 5789 5791 5791 5793 5796 5798 5800 5802 5804 5805 5808 5808 5809 5810 5811 5811 5812 5813 5813 5814 5814 5815 5815 5815 5816 5816 5816 5816 5817 5818 5818 5819 5820 5821 5822 5824 5825 5826 5827 5828 5828
5779 5780 5781 5783 5785 5786 5791 5791 5793 5794 5796 5798 5800 5801 5802 5804 5805 5805 5806 5807 5808 5808 5809 5810 5810 5811 5811 5811 5811 5812 5812 5812 5813 5814 5815 5816 5817 5818 5819 5820 5821 5822 5823 5824
5773 5774 5775 5777 5778 5780 5784 5785 5786 5788 5790 5792 5794 5795 5797 5798 5799 5800 5800 5802 5803 5803 5804 5805 5805 5806 5806 5806 5807 5807 5808 5808 5809 5809 5810 5811 5812 5813 5814 5815 5816 5817 5818 5819
5766 5768 5769 5771 5772 5774 5778 5780 5781 5784 5784 5786 5788 5789 5791 5792 5793 5795 5796 5796 5797 5798 5799 5799 5800 5800 5801 5801 5802 5802 5803 5803 5804 5804 5805 5806 5807 5808 5809 5810 5811 5812 5813 5814
5759 5760 5762 5764 5765 5767 5771 5774 5776 5778 5779 5780 5781 5783 5785 5786 5787 5789 5790 5791 5792 5793 5793 5794 5795 5795 5796 5796 5796 5797 5798 5798 5798 5799 5800 5800 5802 5803 5804 5805 5806 5807 5808 5809
5752 5754 5756 5757 5758 5763 5765 5767 5769 5771 5772 5773 5775 5776 5778 5779 5781 5782 5783 5784 5786 5786 5787 5788 5789 5789 5790 5790 5791 5791 5792 5792 5793 5793 5794 5795 5796 5797 5798 5799 5801 5801 5803 5803
5745 5747 5748 5750 5754 5755 5757 5759 5761 5763 5764 5766 5768 5770 5771 5772 5774 5775 5777 5778 5779 5780 5781 5781 5782 5783 5783 5784 5784 5785 5786 5786 5787 5787 5789 5790 5791 5792 5793 5794 5795 5796 5797 5798
5737 5738 5740 5742 5744 5747 5749 5751 5753 5756 5758 5759 5761 5762 5764 5766 5767 5768 5770 5771 5772 5773 5773 5774 5775 5776 5777 5777 5778 5779 5779 5780 5781 5781 5782 5783 5785 5786 5787 5788 5789 5790 5791 5792
5730 5731 5732 5734 5737 5739 5742 5743 5745 5748 5750 5752 5754 5755 5757 5758 5760 5761 5762 5764 5765 5765 5766 5767 5768 5769 5770 5771 5772 5772 5773 5774 5774 5775 5776 5777 5778 5779 5781 5782 5783 5784 5785 5786
5722 5723 5725 5727 5729 5731 5733 5735 5737 5740 5742 5744 5746 5748 5750 5751 5752 5754 5755 5756 5757 5758 5759 5760 5761 5762 5763 5764 5765 5766 5767 5767 5768 5769 5770 5771 5772 5773 5774 5776 5777 5778 5779 5780